Hourly Data Report for March 18, 2005

TORONTO CITY
ONTARIO

43°40'00.000" N
79°24'00.000" W
112.50 m
6158355
71508
XTO

Download Data

Hourly Data (March 2005)
Hourly Data Report for March 18, 2005
TIME
LST
Temp Definition
°C
Dew Point Definition
°C
Rel Hum Definition
%
Precip. Amount Definition
mm

Wind Dir Definition
10's deg

Wind Spd Definition
km/h
Visibility Definition
km
Stn Press Definition
kPa
Hmdx Definition


Wind Chill Definition


Weather Definition


00:00 0.1 -4.3 72   LegendMM LegendMM   100.27     LegendNANA
01:00 -0.7 -4.8 74   LegendMM LegendMM   100.28     LegendNANA
02:00 -1.7 -5.3 76   LegendMM LegendMM   100.26     LegendNANA
03:00 -1.9 -5.5 76   LegendMM LegendMM   100.28     LegendNANA
04:00 -2.5 -5.6 79   LegendMM LegendMM   100.29     LegendNANA
05:00 -2.9 -5.9 80   LegendMM LegendMM   100.36     LegendNANA
06:00 -3.3 -5.5 85   LegendMM LegendMM   100.41     LegendNANA
07:00 -3.0 -5.6 82   LegendMM LegendMM   100.43     LegendNANA
08:00 -1.9 -5.5 76   LegendMM LegendMM   100.49     LegendNANA
09:00 -0.8 -5.4 71   LegendMM LegendMM   100.48     LegendNANA
10:00 0.2 -5.6 65   LegendMM LegendMM   100.51     LegendNANA
11:00 1.2 -5.4 61   LegendMM LegendMM   100.48     LegendNANA
12:00 2.3 -6.1 54   LegendMM LegendMM   100.48     LegendNANA
13:00 2.2 -5.8 55   LegendMM LegendMM   100.47     LegendNANA
14:00 2.1 -6.1 55   LegendMM LegendMM   100.46     LegendNANA
15:00 1.9 -6.8 52   LegendMM LegendMM   100.46     LegendNANA
16:00 2.5 -7.6 47   LegendMM LegendMM   100.47     LegendNANA
17:00 1.5 -3.9 67   LegendMM LegendMM   100.52     LegendNANA
18:00 0.7 -4.6 68   LegendMM LegendMM   100.54     LegendNANA
19:00 0.5 -4.2 71   LegendMM LegendMM   100.58     LegendNANA
20:00 0.4 -4.0 72   LegendMM LegendMM   100.63     LegendNANA
21:00 0.0 -3.9 75   LegendMM LegendMM   100.67     LegendNANA
22:00 0.6 -4.9 67   LegendMM LegendMM   100.69     LegendNANA
23:00 -0.2 -5.0 70   LegendMM LegendMM   100.70     LegendNANA

Notes on Data Quality.

Legend

  • E = Estimated
  • M = Missing
  • NA = Not Available*
  • [empty] = Indicates an unobserved value
Date modified: